GW4909 Weather Reports


Display with metric or nautical units.
time (UTC)temp
F
wind
direction
speed
MPH
gust
MPH
rain 1hr
in
rain 24hr
in
rain mn
in
humidity
%
barometer
mb
20260504150941 69 243 1.0 1.0 0.00 0.00 0.00 53 1017.9
20260504150437 68 275 0.0 1.0 0.00 0.00 0.00 54 1017.7
20260504140904 63 302 2.0 2.0 0.00 0.00 0.00 61 1018.6
20260504140400 64 31 1.0 1.0 0.00 0.00 0.00 60 1018.7
20260504130324 57 143 0.0 0.0 0.00 0.00 0.00 75 1018.7
20260504120248 46 256 0.0 0.0 0.00 0.00 0.00 98 1018.4
20260504110715 43 257 0.0 0.0 0.00 0.00 0.00 98 1018.0
20260504110212 43 257 0.0 0.0 0.00 0.00 0.00 98 1018.1
20260504100130 43 237 0.0 0.0 0.00 0.00 0.00 98 1017.7
20260504081523 44 244 0.0 0.0 0.00 0.00 0.00 97 1017.7
20260504081019 44 247 0.0 0.0 0.00 0.00 0.00 97 1017.6
20260504080515 44 254 0.0 0.0 0.00 0.00 0.00 97 1017.5
20260504050328 47 248 0.0 0.0 0.00 0.00 0.00 90 1018.2
20260504045825 47 242 0.0 0.0 0.00 0.00 0.00 90 1018.2
20260504045320 47 235 0.0 0.0 0.00 0.00 0.00 90 1018.4
20260504044817 47 250 0.0 0.0 0.00 0.00 0.00 90 1018.3
20260504044315 47 240 0.0 0.0 0.00 0.00 0.00 90 1018.4
20260504043812 48 240 0.0 0.0 0.00 0.00 0.00 90 1018.3
20260504043308 48 232 0.0 0.0 0.00 0.00 0.00 90 1018.4
20260504042806 48 212 0.0 0.0 0.00 0.00 0.00 89 1018.6
20260504042304 48 245 0.0 0.0 0.00 0.00 0.00 89 1018.5
20260504041759 48 258 0.0 0.0 0.00 0.00 0.00 88 1018.6
20260504041255 48 258 0.0 0.0 0.00 0.00 0.00 88 1018.7
20260504040751 48 237 0.0 0.0 0.00 0.00 0.00 87 1018.7
20260504040249 49 201 0.0 1.0 0.00 0.00 0.00 87 1018.7
20260504035744 49 221 0.0 0.0 0.00 0.00 0.00 88 1018.8
20260504035242 49 225 0.0 0.0 0.00 0.00 0.00 87 1018.8
20260504034739 49 253 0.0 0.0 0.00 0.00 0.00 87 1018.8
20260504034236 49 253 0.0 0.0 0.00 0.00 0.00 86 1018.8
20260504033734 49 251 0.0 0.0 0.00 0.00 0.00 86 1018.9
20260504033231 49 234 0.0 0.0 0.00 0.00 0.00 85 1018.7
20260504032728 49 218 0.0 0.0 0.00 0.00 0.00 85 1018.7
20260504032225 50 242 0.0 0.0 0.00 0.00 0.00 87 1018.8
20260504031722 50 240 0.0 0.0 0.00 0.00 0.00 87 1018.9
20260504031219 50 247 0.0 0.0 0.00 0.00 0.00 87 1018.8
20260504030715 50 245 0.0 0.0 0.00 0.00 0.00 87 1018.8
20260504030213 50 243 0.0 0.0 0.00 0.00 0.00 87 1018.6
20260504025709 50 238 0.0 0.0 0.00 0.00 0.00 86 1018.8
20260504025205 50 245 0.0 0.0 0.00 0.00 0.00 86 1018.7
20260504024703 51 243 0.0 0.0 0.00 0.00 0.00 85 1018.6
20260504024159 51 239 0.0 0.0 0.00 0.00 0.00 82 1018.5
20260504023656 51 236 0.0 0.0 0.00 0.00 0.00 84 1018.7
20260504023152 51 240 0.0 0.0 0.00 0.00 0.00 83 1018.6
20260504022648 51 240 0.0 0.0 0.00 0.00 0.00 83 1018.4
20260504022144 51 247 0.0 0.0 0.00 0.00 0.00 84 1018.6
20260504021642 51 251 0.0 0.0 0.00 0.00 0.00 83 1018.4
20260504021139 51 242 0.0 0.0 0.00 0.00 0.00 82 1018.4
20260504020636 52 238 0.0 0.0 0.00 0.00 0.00 82 1018.4
20260504020132 52 249 0.0 0.0 0.00 0.00 0.00 82 1018.5
20260504015629 52 254 0.0 0.0 0.00 0.00 0.00 81 1018.3
20260504015125 52 254 0.0 0.0 0.00 0.00 0.00 82 1018.2
20260504014621 53 252 0.0 0.0 0.00 0.00 0.00 81 1018.3
20260504014118 53 246 0.0 0.0 0.00 0.00 0.00 80 1018.3
20260504013616 53 245 0.0 0.0 0.00 0.00 0.00 79 1018.2
20260504013112 53 252 0.0 0.0 0.00 0.00 0.00 79 1018.1
20260504012610 54 248 0.0 0.0 0.00 0.00 0.00 78 1018.1
20260504012108 54 260 0.0 0.0 0.00 0.00 0.00 75 1018.0
20260504011604 54 244 0.0 0.0 0.00 0.00 0.00 76 1018.0
20260504011100 55 252 0.0 0.0 0.00 0.00 0.00 76 1017.9
20260504010556 55 252 0.0 0.0 0.00 0.00 0.00 76 1017.9
20260504010052 55 248 0.0 0.0 0.00 0.00 0.00 75 1018.0
20260504005549 56 236 0.0 0.0 0.00 0.00 0.00 73 1018.0
20260504005046 56 257 0.0 0.0 0.00 0.00 0.00 72 1017.9
20260504004544 57 259 0.0 0.0 0.00 0.00 0.00 70 1017.9
20260504004041 57 259 0.0 0.0 0.00 0.00 0.00 72 1017.9
20260504003537 58 242 0.0 0.0 0.00 0.00 0.00 69 1017.7
20260504003034 59 260 0.0 0.0 0.00 0.00 0.00 67 1017.7
20260504002531 59 253 0.0 0.0 0.00 0.00 0.00 66 1017.9
20260504002029 60 258 0.0 0.0 0.00 0.00 0.00 61 1017.7
20260504001526 61 254 0.0 0.0 0.00 0.00 0.00 58 1017.9
20260504001022 62 258 0.0 0.0 0.00 0.00 0.00 61 1017.6
20260504000519 62 244 0.0 1.0 0.00 0.00 0.00 64 1017.7
20260504000017 63 255 0.0 0.0 0.00 0.00 0.00 58 1017.7
20260503235515 64 264 0.0 0.0 0.00 0.00 0.00 58 1017.7
20260503235011 64 258 0.0 0.0 0.00 0.00 0.00 56 1017.5
20260503234509 66 228 0.0 0.0 0.00 0.00 0.00 56 1017.8
20260503234008 68 244 0.0 0.0 0.00 0.00 0.00 57 1017.8
20260503233503 69 266 1.0 1.0 0.00 0.00 0.00 45 1017.5
20260503232959 68 306 0.0 0.0 0.00 0.00 0.00 46 1017.6
20260503232456 69 255 0.0 0.0 0.00 0.00 0.00 50 1017.6
20260503231954 69 241 0.0 0.0 0.00 0.00 0.00 41 1017.6
20260503231451 69 263 1.0 1.0 0.00 0.00 0.00 45 1017.6
20260503230948 72 244 1.0 1.0 0.00 0.00 0.00 43 1017.8
20260503230444 72 247 0.0 1.0 0.00 0.00 0.00 44 1017.7
20260503225942 71 302 0.0 0.0 0.00 0.00 0.00 36 1017.8
20260503225439 70 229 0.0 1.0 0.00 0.00 0.00 38 1017.7
20260503224934 70 35 0.0 1.0 0.00 0.00 0.00 39 1017.8
20260503224432 70 323 1.0 2.0 0.00 0.00 0.00 38 1017.9
20260503223929 72 352 3.0 3.0 0.00 0.00 0.00 36 1017.9
20260503223427 70 269 0.0 1.0 0.00 0.00 0.00 37 1018.0
20260503222922 70 273 3.0 4.0 0.00 0.00 0.00 36 1017.9
20260503222421 70 236 3.0 3.0 0.00 0.00 0.00 36 1018.0
20260503221919 71 335 2.0 2.0 0.00 0.00 0.00 33 1017.9
20260503221417 69 165 3.0 4.0 0.00 0.00 0.00 35 1018.2
20260503220913 69 4 2.0 3.0 0.00 0.00 0.00 34 1018.0
20260503220410 70 306 2.0 3.0 0.00 0.00 0.00 35 1018.2
20260503215907 69 273 0.0 0.0 0.00 0.00 0.00 38 1018.2
20260503215404 70 118 0.0 1.0 0.00 0.00 0.00 34 1018.0
20260503214902 70 232 4.0 4.0 0.00 0.00 0.00 35 1018.1
20260503214359 70 47 3.0 4.0 0.00 0.00 0.00 33 1018.2
20260503213856 69 292 0.0 1.0 0.00 0.00 0.00 38 1018.2
20260503213354 69 37 4.0 7.0 0.00 0.00 0.00 34 1018.3
20260503212850 70 2 5.0 6.0 0.00 0.00 0.00 36 1018.2
20260503212348 71 245 2.0 2.0 0.00 0.00 0.00 40 1018.2
20260503211845 70 4 3.0 3.0 0.00 0.00 0.00 41 1018.2
20260503211342 71 299 2.0 2.0 0.00 0.00 0.00 37 1018.3
20260503210837 71 351 4.0 6.0 0.00 0.00 0.00 37 1018.4
20260503210335 71 288 1.0 1.0 0.00 0.00 0.00 38 1018.4
20260503205829 71 293 1.0 1.0 0.00 0.00 0.00 36 1018.4
20260503205326 71 49 1.0 2.0 0.00 0.00 0.00 39 1018.4
20260503204823 71 51 2.0 4.0 0.00 0.00 0.00 36 1018.7
20260503204320 71 349 3.0 4.0 0.00 0.00 0.00 36 1018.7
20260503203817 71 268 1.0 1.0 0.00 0.00 0.00 38 1018.6
20260503203315 71 311 0.0 1.0 0.00 0.00 0.00 38 1018.7
20260503202811 70 285 1.0 2.0 0.00 0.00 0.00 42 1018.8
20260503202310 70 275 3.0 4.0 0.00 0.00 0.00 41 1018.9
20260503201808 71 351 5.0 6.0 0.00 0.00 0.00 40 1019.0
20260503201304 71 261 3.0 4.0 0.00 0.00 0.00 39 1019.1
20260503200802 71 263 1.0 1.0 0.00 0.00 0.00 41 1019.2
20260503200257 71 298 3.0 4.0 0.00 0.00 0.00 38 1019.3
20260503195755 70 344 0.0 1.0 0.00 0.00 0.00 45 1019.5
20260503195251 70 157 3.0 3.0 0.00 0.00 0.00 39 1019.5
20260503194749 70 270 4.0 4.0 0.00 0.00 0.00 41 1019.6
20260503194245 70 234 2.0 2.0 0.00 0.00 0.00 42 1019.5
20260503193741 71 293 1.0 1.0 0.00 0.00 0.00 38 1019.8
20260503193237 72 354 1.0 2.0 0.00 0.00 0.00 35 1019.8
20260503192733 70 314 1.0 2.0 0.00 0.00 0.00 42 1019.7
20260503192228 70 98 2.0 3.0 0.00 0.00 0.00 37 1020.1
20260503191725 69 340 1.0 1.0 0.00 0.00 0.00 37 1020.0
20260503191222 68 69 3.0 3.0 0.00 0.00 0.00 37 1020.2
20260503190719 68 291 3.0 4.0 0.00 0.00 0.00 39 1020.3
20260503190216 70 7 1.0 2.0 0.00 0.00 0.00 41 1020.1
20260503185713 69 142 3.0 3.0 0.00 0.00 0.00 37 1020.4
20260503185208 68 275 2.0 3.0 0.00 0.00 0.00 44 1020.4
20260503184703 68 257 5.0 7.0 0.00 0.00 0.00 40 1020.6
20260503184200 69 328 4.0 4.0 0.00 0.00 0.00 42 1020.6
20260503183656 67 255 1.0 1.0 0.00 0.00 0.00 42 1020.5
20260503183154 68 249 2.0 2.0 0.00 0.00 0.00 52 1020.6
20260503182652 67 3 2.0 3.0 0.00 0.00 0.00 43 1020.8
20260503182150 68 126 1.0 1.0 0.00 0.00 0.00 42 1020.7
20260503181646 68 290 0.0 1.0 0.00 0.00 0.00 44 1020.9
20260503181143 66 175 2.0 2.0 0.00 0.00 0.00 44 1020.9
20260503180640 66 285 2.0 3.0 0.00 0.00 0.00 44 1021.0
20260503180138 67 172 2.0 3.0 0.00 0.00 0.00 43 1021.1
20260503175635 68 306 1.0 1.0 0.00 0.00 0.00 48 1020.9
20260503175132 67 28 2.0 2.0 0.00 0.00 0.00 44 1021.0
20260503174628 67 2 3.0 3.0 0.00 0.00 0.00 45 1021.2
20260503174126 66 248 1.0 1.0 0.00 0.00 0.00 49 1021.2
20260503173620 66 32 3.0 3.0 0.00 0.00 0.00 45 1021.2
20260503173117 66 342 3.0 4.0 0.00 0.00 0.00 49 1021.3
20260503172614 65 353 3.0 3.0 0.00 0.00 0.00 46 1021.4
20260503172112 65 281 2.0 2.0 0.00 0.00 0.00 51 1021.3
20260503171608 65 253 5.0 6.0 0.00 0.00 0.00 44 1021.5
20260503171105 64 351 2.0 2.0 0.00 0.00 0.00 47 1021.6
20260503170602 64 253 5.0 6.0 0.00 0.00 0.00 45 1021.5